Regional Weather Roundup
Issued by NWS Cleveland, OH

Home | Current Version | Previous Version | Graphics & Text | Print | Product List | Glossary On
Versions: 1 2 3 4 5 6 7 8 9 10 11 12 13 14 15 16 17 18 19 20 21 22 23 24 25 26 27 28 29 30 31 32 33 34 35 36 37 38 39 40 41 42 43 44 45 46 47 48 49 50
000
ASUS41 KCLE 290302
RWRCLE
OHIO REGIONAL WEATHER ROUNDUP
NATIONAL WEATHER SERVICE CLEVELAND, OH
1100 PM EDT TUE MAR 28 2017

NOTE: "FAIR" INDICATES FEW OR NO CLOUDS BELOW 12,000 FEET WITH NO
SIGNIFICANT WEATHER AND/OR OBSTRUCTIONS TO VISIBILITY.

OHZ001>008-015>018-024>027-034-035-043-044-290400-
   NORTHWEST OHIO

CITY           SKY/WX    TMP DP  RH WIND       PRES   REMARKS
DEFIANCE       CLOUDY    45  39  79 NE5       30.19S
FINDLAY        CLOUDY    47  37  68 N6        30.17R
TOLEDO EXPRESS CLEAR     42  38  85 N6        30.19R
TOLEDO EXEC    CLEAR     42  37  82 NE7       30.21R
LIMA           CLOUDY    45  43  93 NE6       30.17S
$$

OHZ009>014-019>023-028>033-038-089-290400-
   NORTHEAST OHIO

CITY           SKY/WX    TMP DP  RH WIND       PRES   REMARKS
CLE-HOPKINS    CLOUDY    40  35  83 N9        30.19R
CLE-LAKEFRONT  CLOUDY    39  36  89 CALM      30.17R
CUY CO. ARPT   CLOUDY    39  37  93 N7        30.17R
LORAIN-ELYRIA  CLOUDY    38  34  85 NE7       30.18R
ASHTABULA      CLOUDY    40  38  93 NW6       30.14S
AKRON-CANTON   CLOUDY    42  38  85 N5        30.14R
WOOSTER        CLOUDY    40  37  89 NE8       30.16R
MANSFIELD      CLEAR     39  35  86 N8        30.16R
YOUNGSTOWN     CLOUDY    42  40  92 NW10      30.13R
$$

OHZ042-051>053-060>062-070>072-077>081-290400-
  SOUTHWEST OHIO

CITY           SKY/WX    TMP DP  RH WIND       PRES   REMARKS
CINC-COVINGTON CLOUDY    53  48  83 N5        30.13R
CINC-LUNKEN    CLOUDY    55  50  83 N3        30.14R
HAMILTON       CLOUDY    53  48  83 N7        30.15S
DAYTON         CLOUDY    48  44  86 NE7       30.16R
WRIGHT-PAT AFB CLOUDY    50  47  90 N12       30.15R
DAYTON GENERAL CLOUDY    50  45  83 NE10      30.14R
WILMINGTON     CLOUDY    49  45  86 NE13      30.14R
$$

OHZ036-037-039>041-045>050-054>059-063>069-073>076-082>088-290400-
  CENTRAL AND SOUTHEAST OHIO

CITY           SKY/WX    TMP DP  RH WIND       PRES   REMARKS
COLUMBUS       CLOUDY    47  41  80 N12       30.15R
OSU AIRPORT    CLOUDY    45  41  86 NE13      30.16R
BOLTON FIELD   CLOUDY    46  41  83 N12       30.17R
RICKENBACK AFB CLOUDY    47  42  82 N12       30.15R
NEWARK         CLOUDY    47  40  76 N8        30.15R
MARION         CLOUDY    44  38  79 NE10      30.18R
LANCASTER      CLOUDY    50  43  77 N10       30.15R
ZANESVILLE     CLOUDY    47  40  76 VRB7      30.14R
NEW PHILLY     NOT AVBL
$$




USA.gov is the U.S. government's official web portal to all federal, state and local government web resources and services.